Flag for U.S.A. Weather past 2 weeks in San Jose, California, U.S.A.

Now
52 °F

Clear.


Feels Like: 50 °F
Forecast: 44 / 63 °F
Wind: 6 mph from Northwest

Location: San Jose International Airport

Current Time: Jan 29, 2015 at 9:18:33 PM

Latest Report: Jan 29, 2015 at 8:53 PM


Visibility: 10 mi

Pressure: 30.08 "Hg

Humidity: 89%

Dew point: 49 °F

Location of San JoseLocation

Historic Weather in San Jose — Graph

°F

San Jose temperature yesterday

Maximum temperature yesterday: 66 °F (at 2:53 PM)
Minimum temperature yesterday: 44 °F (at 4:53 AM)
Average temperature yesterday: 54 °F

Past Weeks' High & Low Weather Summary

 TemperatureHumidityPressure
High69 °F (Jan 24, 3:53 PM)100% (Jan 19, 5:04 AM)30.36 "Hg (Jan 19, 5:04 AM)
Low37 °F (Jan 23, 5:53 AM)29% (Jan 24, 3:53 PM)29.96 "Hg (Jan 26, 3:53 PM)
Average52 °F75%30.19 "Hg
* Reported Jan 14 7:53 PM — Jan 29 7:53 PM, San Jose, Weather by CustomWeather, © 2014

Note: Actual official high and low records may vary slightly from our data, if they occured in-between our weather recording intervals... More about our weather records

Advertising

San Jose weather history for previous 24 hours

 ConditionsComfort  
Time TempWeatherWind HumidityBarometerVisibility
7:53 PM
Jan 29
54 °FClear.6 mph80%30.08 "Hg10 mi
6:53 PM57 °FClear.6 mph78%30.07 "Hg10 mi
5:53 PM56 °FPassing clouds.7 mph72%30.06 "Hg10 mi
4:53 PM61 °FPassing clouds.9 mph65%30.06 "Hg10 mi
3:53 PM64 °FPassing clouds.9 mph56%30.06 "Hg10 mi
2:53 PM64 °FPassing clouds.6 mph56%30.06 "Hg10 mi
1:53 PM63 °FPassing clouds.No wind56%30.07 "Hg10 mi
12:53 PM61 °FPassing clouds.No wind60%30.10 "Hg9 mi
11:53 AM57 °FHaze.No wind78%30.14 "Hg6 mi
11:01 AM52 °FFog.No wind94%30.16 "Hg3 mi
10:53 AM51 °FFog.3 mph96%30.16 "Hg3 mi
9:53 AM50 °FFog.No wind100%30.16 "Hg1 mi
8:53 AM48 °FFog.No wind100%30.16 "Hg0 mi
7:53 AM46 °FFog.No wind100%30.15 "Hg0 mi
6:53 AM46 °FFog.No wind89%30.14 "Hg6 mi
6:00 AM45 °FPartly cloudy.No wind87%30.14 "Hg7 mi
4:53 AM45 °FClear.No wind86%30.14 "Hg10 mi
3:53 AM43 °FClear.5 mph89%30.14 "Hg10 mi
2:53 AM47 °FClear.No wind83%30.15 "Hg10 mi
1:53 AM48 °FClear.No wind83%30.16 "Hg10 mi
12:53 AM49 °FClear.No wind84%30.16 "Hg10 mi
11:53 PM
Jan 28
50 °FPassing clouds.No wind83%30.17 "Hg10 mi
10:53 PM52 °FPassing clouds.No wind83%30.17 "Hg10 mi
9:53 PM54 °FPassing clouds.No wind86%30.17 "Hg10 mi
Weather by CustomWeather, © 2014

See weather overviewHow to use our weather pages